Overview Statistics Trail Chart Weather Telemetry Raw packets
 

This is the latest recevied weather packets stored in our database for station/object KD7AWQ. If no packets are shown the sender has not sent any weather packets the latest 10 day(s).

<< 107 108 109 110 111 112 113 >>
Time Temp. Humidity Pressure Rain* Wind** Luminosity Snow
1787643303 30° C 28% 1188.8 hPa 0 mm - 0 W/m² -
1787643000 30° C 27% 1189 hPa 0 mm - 0 W/m² -
1787642700 29.44° C 28% 1189 hPa 0 mm - 0 W/m² -
1787642400 28.89° C 29% 1189.1 hPa 0 mm - 0 W/m² -
1787642098 29.44° C 29% 1189 hPa 0 mm - 0 W/m² -
1787641797 30° C 28% 1189 hPa 0 mm - 0 W/m² -
1787641491 29.44° C 28% 1188.9 hPa 0 mm - 0 W/m² -
1787641190 28.89° C 30% 1188.8 hPa 0 mm - 0 W/m² -
1787640885 28.33° C 31% 1188.9 hPa 0 mm - 0 W/m² -
1787640581 27.78° C 32% 1188.8 hPa 0 mm - 0 W/m² -
1787640276 27.78° C 32% 1188.7 hPa 0 mm - 0 W/m² -
1787639971 27.78° C 32% 1188.8 hPa 0 mm - 0 W/m² -
1787639667 28.33° C 32% 1188.8 hPa 0 mm - 0 W/m² -
1787639362 28.33° C 32% 1188.7 hPa 0 mm - 0 W/m² -
1787639057 28.89° C 31% 1188.9 hPa 0 mm - 0 W/m² -
1787638752 28.89° C 29% 1188.6 hPa 0 mm - 0 W/m² -
1787638448 28.89° C 31% 1188.6 hPa 0 mm - 0 W/m² -
1787638143 28.89° C 31% 1188.6 hPa 0 mm - 0 W/m² -
1787637839 28.89° C 31% 1188.7 hPa 0 mm - 0 W/m² -
1787637538 28.89° C 31% 1188.7 hPa 0 mm - 0 W/m² -
1787637234 28.89° C 31% 1188.8 hPa 0 mm - 0 W/m² -
1787636933 28.89° C 31% 1188.7 hPa 0 mm - 0 W/m² -
1787636633 28.89° C 30% 1188.7 hPa 0 mm - 0 W/m² -
1787636328 28.89° C 30% 1188.7 hPa 0 mm - 0 W/m² -
1787636023 28.89° C 31% 1188.7 hPa 0 mm - 0 W/m² -

* Rain latest hour (hover to see other rain measurements)
** Current wind speed in m/s (hover to see current wind gust speed)